QPF
0.03 0.03 0.02 0.02 0.02 0.01 0.02 0.03 0.02 0.02 0.03 0.04 0.04 0.04 0.02 0.03 0.04 0.05 0.02 0.02 0.02 0.02 0.02 0.02 0.01 0.01 0.01 0.01 0.03 0.02 0.01 0.02 0.02 0.01 0.01 0.01 0.01 0.01 0.01 0.01 0.01 0.01 0.01
0.03 0.03 0.02 0.02 0.03 0.02 0.03 0.03 0.03 0.03 0.03 0.04 0.04 0.02 0.02 0.03 0.04 0.04 0.03 0.02 0.03 0.02 0.02 0.03 0.02 0.01 0.02 0.02 0.04 0.02 0.01 0.02 0.02 0.01 0.01 0.01 0.01 0.01 0.01 0.01 0.01 0.01 0.01
0.02 0.02 0.02 0.02 0.02 0.02 0.03 0.04 0.04 0.05 0.05 0.04 0.04 0.03 0.03 0.03 0.04 0.04 0.05 0.05 0.03 0.03 0.03 0.03 0.03 0.03 0.02 0.03 0.04 0.03 0.02 0.02 0.01 0.01 0.01 0.01 0.01 0.01 0.01 0.01 0.01 0.01 0.01
0.03 0.02 0.02 0.02 0.02 0.03 0.03 0.06 0.07 0.07 0.06 0.04 0.05 0.04 0.04 0.04 0.04 0.05 0.06 0.09 0.07 0.04 0.04 0.02 0.03 0.03 0.03 0.03 0.04 0.04 0.03 0.02 0.02 0.01 0.01 0.01 0.01 0.01 0.01 0.01 0.01 0.01 0.01
0.04 0.03 0.02 0.02 0.03 0.04 0.04 0.05 0.09 0.08 0.07 0.05 0.04 0.06 0.05 0.05 0.06 0.05 0.05 0.04 0.04 0.04 0.04 0.03 0.03 0.04 0.03 0.03 0.05 0.05 0.04 0.03 0.02 0.02 0.02 0.01 0.01 0.01 0.00 0.00 0.00 0.00 0.00
0.05 0.04 0.03 0.03 0.04 0.05 0.07 0.09 0.09 0.07 0.06 0.06 0.06 0.07 0.07 0.07 0.06 0.06 0.06 0.05 0.05 0.04 0.05 0.05 0.06 0.06 0.03 0.02 0.04 0.04 0.03 0.03 0.05 0.04 0.03 0.02 0.02 0.01 0.00 0.00 0.00 0.00 0.00
0.05 0.05 0.05 0.05 0.06 0.05 0.06 0.06 0.07 0.07 0.07 0.07 0.09 0.08 0.07 0.08 0.07 0.06 0.04 0.04 0.04 0.05 0.07 0.08 0.07 0.03 0.02 0.02 0.03 0.05 0.05 0.06 0.07 0.05 0.04 0.03 0.02 0.01 0.01 0.01 0.01 0.01 0.01
0.08 0.07 0.07 0.05 0.05 0.05 0.08 0.07 0.07 0.08 0.07 0.09 0.11 0.10 0.07 0.06 0.06 0.06 0.05 0.04 0.05 0.07 0.08 0.08 0.08 0.07 0.05 0.06 0.05 0.05 0.07 0.08 0.08 0.07 0.05 0.04 0.03 0.02 0.02 0.01 0.01 0.01 0.00
0.09 0.09 0.08 0.06 0.04 0.04 0.05 0.06 0.08 0.12 0.11 0.09 0.10 0.10 0.08 0.05 0.04 0.05 0.04 0.05 0.07 0.09 0.08 0.08 0.08 0.09 0.08 0.08 0.09 0.07 0.07 0.06 0.05 0.06 0.05 0.04 0.03 0.02 0.02 0.02 0.02 0.01 0.00
0.08 0.07 0.06 0.05 0.05 0.04 0.03 0.04 0.06 0.09 0.11 0.11 0.09 0.08 0.09 0.08 0.07 0.04 0.04 0.06 0.07 0.08 0.08 0.09 0.09 0.09 0.07 0.06 0.07 0.06 0.05 0.03 0.03 0.05 0.06 0.06 0.04 0.02 0.02 0.02 0.02 0.02 0.01
0.05 0.05 0.05 0.04 0.05 0.04 0.04 0.05 0.06 0.08 0.07 0.08 0.09 0.10 0.09 0.09 0.07 0.06 0.04 0.04 0.05 0.06 0.06 0.06 0.06 0.05 0.05 0.06 0.06 0.05 0.05 0.05 0.03 0.03 0.03 0.04 0.04 0.04 0.02 0.02 0.03 0.03 0.03
0.03 0.03 0.05 0.04 0.04 0.04 0.04 0.05 0.05 0.05 0.05 0.06 0.07 0.08 0.10 0.08 0.06 0.07 0.05 0.03 0.03 0.02 0.03 0.04 0.04 0.04 0.04 0.05 0.05 0.04 0.05 0.07 0.07 0.05 0.03 0.03 0.04 0.04 0.05 0.05 0.05 0.05 0.06
0.03 0.03 0.04 0.04 0.04 0.04 0.04 0.04 0.03 0.03 0.03 0.05 0.05 0.06 0.08 0.08 0.08 0.08 0.06 0.05 0.04 0.03 0.03 0.03 0.04 0.05 0.06 0.08 0.08 0.07 0.07 0.10 0.11 0.09 0.07 0.05 0.04 0.05 0.07 0.06 0.06 0.07 0.08
0.03 0.03 0.04 0.04 0.05 0.04 0.04 0.05 0.04 0.04 0.04 0.05 0.04 0.06 0.08 0.07 0.07 0.08 0.08 0.09 0.07 0.04 0.04 0.04 0.04 0.06 0.08 0.11 0.15 0.15 0.12 0.14 0.14 0.13 0.11 0.09 0.06 0.04 0.03 0.04 0.05 0.06 0.05
0.04 0.03 0.03 0.03 0.04 0.05 0.06 0.05 0.05 0.07 0.07 0.06 0.05 0.05 0.06 0.06 0.06 0.07 0.09 0.12 0.10 0.08 0.06 0.05 0.05 0.06 0.09 0.12 0.15 0.14 0.12 0.13 0.15 0.14 0.13 0.11 0.09 0.06 0.04 0.03 0.04 0.04 0.04
0.03 0.03 0.03 0.03 0.04 0.05 0.06 0.08 0.09 0.11 0.10 0.08 0.07 0.06 0.05 0.07 0.09 0.08 0.10 0.11 0.12 0.13 0.12 0.07 0.05 0.05 0.07 0.10 0.11 0.10 0.10 0.11 0.12 0.13 0.12 0.12 0.10 0.09 0.07 0.06 0.06 0.05 0.04
0.01 0.02 0.03 0.04 0.05 0.05 0.07 0.08 0.08 0.11 0.12 0.11 0.09 0.08 0.08 0.08 0.08 0.08 0.09 0.11 0.11 0.12 0.10 0.06 0.05 0.05 0.07 0.08 0.10 0.10 0.09 0.11 0.14 0.14 0.12 0.12 0.11 0.09 0.08 0.08 0.07 0.07 0.07
0.01 0.01 0.02 0.04 0.06 0.07 0.07 0.08 0.08 0.07 0.08 0.09 0.10 0.11 0.10 0.09 0.07 0.08 0.09 0.09 0.09 0.08 0.07 0.05 0.05 0.05 0.05 0.07 0.08 0.08 0.07 0.08 0.09 0.10 0.11 0.11 0.10 0.09 0.08 0.07 0.07 0.08 0.08
0.02 0.02 0.02 0.03 0.05 0.06 0.05 0.05 0.06 0.07 0.10 0.10 0.11 0.11 0.11 0.11 0.11 0.11 0.11 0.10 0.10 0.10 0.10 0.08 0.07 0.06 0.07 0.08 0.09 0.08 0.07 0.07 0.07 0.08 0.10 0.11 0.11 0.11 0.11 0.09 0.09 0.09 0.10
0.01 0.02 0.02 0.03 0.02 0.04 0.04 0.04 0.05 0.05 0.06 0.05 0.04 0.05 0.06 0.11 0.14 0.13 0.14 0.14 0.15 0.14 0.16 0.16 0.13 0.12 0.13 0.12 0.11 0.09 0.09 0.09 0.09 0.10 0.11 0.10 0.10 0.10 0.11 0.10 0.10 0.09 0.09
0.03 0.02 0.03 0.02 0.01 0.02 0.02 0.03 0.02 0.02 0.03 0.03 0.05 0.05 0.06 0.10 0.11 0.12 0.13 0.15 0.16 0.16 0.16 0.15 0.14 0.13 0.11 0.11 0.09 0.08 0.08 0.09 0.10 0.10 0.09 0.08 0.06 0.07 0.10 0.11 0.11 0.09 0.07
0.04 0.02 0.01 0.01 0.01 0.02 0.02 0.01 0.01 0.01 0.01 0.02 0.04 0.05 0.07 0.08 0.08 0.09 0.10 0.11 0.11 0.10 0.09 0.08 0.07 0.06 0.06 0.06 0.06 0.07 0.07 0.08 0.11 0.12 0.09 0.07 0.06 0.06 0.07 0.07 0.08 0.07 0.07
0.03 0.01 0.01 0.01 0.01 0.01 0.01 0.01 0.01 0.02 0.02 0.03 0.04 0.05 0.06 0.06 0.06 0.07 0.08 0.08 0.08 0.07 0.07 0.05 0.04 0.05 0.05 0.06 0.07 0.09 0.11 0.12 0.12 0.10 0.08 0.07 0.05 0.04 0.04 0.04 0.04 0.04 0.04
0.03 0.02 0.02 0.02 0.02 0.02 0.03 0.02 0.03 0.03 0.03 0.04 0.04 0.05 0.04 0.05 0.07 0.09 0.08 0.08 0.08 0.07 0.07 0.05 0.04 0.04 0.05 0.07 0.08 0.08 0.08 0.09 0.09 0.06 0.05 0.05 0.03 0.03 0.03 0.03 0.03 0.03 0.03
0.05 0.04 0.04 0.04 0.04 0.04 0.05 0.04 0.04 0.04 0.04 0.04 0.04 0.04 0.04 0.04 0.05 0.07 0.05 0.04 0.04 0.06 0.07 0.08 0.08 0.08 0.08 0.09 0.08 0.07 0.07 0.06 0.05 0.04 0.03 0.04 0.03 0.03 0.03 0.02 0.02 0.03 0.03
0.05 0.06 0.06 0.06 0.05 0.06 0.06 0.06 0.05 0.05 0.05 0.04 0.04 0.04 0.05 0.05 0.04 0.05 0.04 0.03 0.02 0.03 0.04 0.06 0.08 0.09 0.09 0.10 0.10 0.09 0.09 0.09 0.08 0.07 0.06 0.05 0.04 0.05 0.04 0.02 0.02 0.03 0.03
MSLP
1017.01 1017.27 1017.48 1017.64 1017.77 1017.89 1018.01 1018.13 1018.24 1018.34 1018.41 1018.46 1018.48 1018.49 1018.50 1018.54 1018.63 1018.78 1018.98 1019.23 1019.49 1019.76 1020.01 1020.23 1020.40 1020.53 1020.64 1020.74 1020.84 1020.96 1021.09 1021.24 1021.40 1021.57 1021.72 1021.86 1021.98 1022.08 1022.15 1022.20 1022.23 1022.24 1022.23
1017.35 1017.62 1017.83 1017.98 1018.10 1018.18 1018.26 1018.33 1018.41 1018.48 1018.53 1018.57 1018.59 1018.60 1018.60 1018.62 1018.66 1018.75 1018.89 1019.07 1019.30 1019.54 1019.80 1020.03 1020.24 1020.42 1020.57 1020.69 1020.79 1020.89 1021.00 1021.11 1021.24 1021.38 1021.53 1021.68 1021.82 1021.94 1022.04 1022.10 1022.14 1022.16 1022.16
1017.55 1017.82 1018.03 1018.19 1018.30 1018.38 1018.44 1018.50 1018.57 1018.63 1018.69 1018.74 1018.77 1018.78 1018.78 1018.76 1018.75 1018.77 1018.82 1018.92 1019.07 1019.26 1019.48 1019.72 1019.95 1020.17 1020.35 1020.50 1020.62 1020.72 1020.80 1020.88 1020.98 1021.09 1021.23 1021.37 1021.52 1021.66 1021.78 1021.88 1021.94 1021.98 1022.00
1017.56 1017.83 1018.05 1018.23 1018.36 1018.46 1018.54 1018.62 1018.70 1018.78 1018.86 1018.94 1018.99 1019.01 1019.00 1018.95 1018.89 1018.82 1018.77 1018.77 1018.81 1018.92 1019.09 1019.30 1019.53 1019.77 1019.98 1020.16 1020.30 1020.41 1020.49 1020.55 1020.62 1020.71 1020.82 1020.96 1021.10 1021.26 1021.40 1021.52 1021.61 1021.68 1021.73
1017.40 1017.65 1017.88 1018.08 1018.26 1018.40 1018.53 1018.64 1018.76 1018.88 1019.00 1019.11 1019.19 1019.23 1019.22 1019.15 1019.04 1018.89 1018.75 1018.63 1018.56 1018.57 1018.65 1018.80 1019.01 1019.25 1019.48 1019.69 1019.86 1019.98 1020.06 1020.12 1020.18 1020.25 1020.34 1020.45 1020.59 1020.74 1020.89 1021.04 1021.16 1021.26 1021.35
1017.09 1017.31 1017.55 1017.78 1018.00 1018.21 1018.39 1018.56 1018.73 1018.89 1019.05 1019.20 1019.31 1019.38 1019.38 1019.31 1019.16 1018.96 1018.73 1018.50 1018.33 1018.22 1018.21 1018.29 1018.45 1018.66 1018.89 1019.12 1019.30 1019.45 1019.55 1019.61 1019.66 1019.72 1019.79 1019.88 1020.01 1020.15 1020.30 1020.45 1020.60 1020.73 1020.85
1016.69 1016.88 1017.11 1017.38 1017.64 1017.90 1018.14 1018.37 1018.58 1018.78 1018.98 1019.16 1019.31 1019.41 1019.43 1019.37 1019.22 1018.98 1018.70 1018.40 1018.12 1017.92 1017.81 1017.80 1017.90 1018.07 1018.28 1018.50 1018.69 1018.85 1018.96 1019.04 1019.09 1019.13 1019.19 1019.27 1019.38 1019.50 1019.64 1019.79 1019.94 1020.08 1020.22
1016.29 1016.43 1016.65 1016.93 1017.23 1017.53 1017.82 1018.08 1018.31 1018.54 1018.76 1018.96 1019.14 1019.27 1019.33 1019.30 1019.17 1018.93 1018.63 1018.29 1017.95 1017.67 1017.48 1017.39 1017.41 1017.52 1017.69 1017.88 1018.07 1018.23 1018.35 1018.43 1018.48 1018.52 1018.57 1018.63 1018.71 1018.82 1018.94 1019.08 1019.22 1019.36 1019.49
1015.95 1016.04 1016.24 1016.52 1016.83 1017.15 1017.45 1017.72 1017.96 1018.18 1018.39 1018.60 1018.79 1018.95 1019.05 1019.06 1018.98 1018.78 1018.50 1018.16 1017.80 1017.48 1017.22 1017.07 1017.01 1017.05 1017.17 1017.32 1017.47 1017.62 1017.73 1017.80 1017.85 1017.89 1017.93 1017.98 1018.04 1018.13 1018.23 1018.34 1018.46 1018.57 1018.70
1015.72 1015.77 1015.93 1016.19 1016.49 1016.80 1017.09 1017.34 1017.55 1017.74 1017.92 1018.11 1018.29 1018.47 1018.60 1018.67 1018.64 1018.51 1018.29 1017.99 1017.65 1017.32 1017.03 1016.82 1016.71 1016.68 1016.73 1016.82 1016.93 1017.03 1017.12 1017.18 1017.22 1017.25 1017.28 1017.32 1017.37 1017.44 1017.52 1017.60 1017.69 1017.78 1017.87
1015.60 1015.60 1015.73 1015.96 1016.23 1016.51 1016.76 1016.96 1017.12 1017.26 1017.39 1017.53 1017.69 1017.86 1018.02 1018.14 1018.18 1018.13 1017.98 1017.75 1017.46 1017.16 1016.88 1016.64 1016.48 1016.39 1016.37 1016.39 1016.44 1016.49 1016.54 1016.57 1016.59 1016.61 1016.63 1016.66 1016.71 1016.77 1016.83 1016.90 1016.96 1017.02 1017.08
1015.55 1015.53 1015.63 1015.82 1016.06 1016.29 1016.48 1016.63 1016.72 1016.78 1016.84 1016.93 1017.05 1017.20 1017.36 1017.51 1017.62 1017.64 1017.58 1017.44 1017.22 1016.97 1016.72 1016.49 1016.30 1016.17 1016.09 1016.04 1016.02 1016.01 1016.00 1015.99 1015.98 1015.99 1016.00 1016.03 1016.08 1016.13 1016.19 1016.25 1016.29 1016.33 1016.35
1015.52 1015.50 1015.58 1015.74 1015.93 1016.12 1016.26 1016.34 1016.36 1016.35 1016.34 1016.35 1016.42 1016.54 1016.69 1016.86 1017.00 1017.09 1017.11 1017.05 1016.92 1016.75 1016.54 1016.34 1016.15 1015.99 1015.86 1015.75 1015.67 1015.59 1015.53 1015.47 1015.43 1015.41 1015.42 1015.45 1015.50 1015.56 1015.62 1015.68 1015.71 1015.73 1015.73
1015.48 1015.46 1015.53 1015.67 1015.83 1015.97 1016.06 1016.09 1016.05 1015.98 1015.90 1015.85 1015.86 1015.93 1016.05 1016.21 1016.38 1016.51 1016.60 1016.61 1016.57 1016.47 1016.33 1016.17 1016.00 1015.84 1015.68 1015.53 1015.39 1015.26 1015.14 1015.03 1014.95 1014.91 1014.90 1014.93 1014.98 1015.06 1015.13 1015.19 1015.22 1015.23 1015.21
1015.38 1015.37 1015.44 1015.57 1015.71 1015.83 1015.88 1015.87 1015.80 1015.68 1015.55 1015.45 1015.40 1015.42 1015.50 1015.64 1015.80 1015.96 1016.08 1016.16 1016.19 1016.16 1016.09 1015.99 1015.86 1015.71 1015.55 1015.38 1015.20 1015.02 1014.85 1014.70 1014.58 1014.51 1014.48 1014.50 1014.56 1014.64 1014.72 1014.78 1014.82 1014.83 1014.79
1015.21 1015.22 1015.31 1015.43 1015.56 1015.67 1015.71 1015.68 1015.59 1015.44 1015.28 1015.14 1015.05 1015.03 1015.07 1015.17 1015.31 1015.46 1015.60 1015.72 1015.80 1015.84 1015.84 1015.80 1015.72 1015.61 1015.47 1015.30 1015.11 1014.90 1014.69 1014.50 1014.34 1014.23 1014.18 1014.18 1014.23 1014.30 1014.38 1014.45 1014.49 1014.49 1014.45
1014.98 1015.02 1015.12 1015.25 1015.38 1015.49 1015.54 1015.51 1015.41 1015.27 1015.10 1014.93 1014.81 1014.75 1014.75 1014.81 1014.91 1015.05 1015.20 1015.34 1015.46 1015.55 1015.61 1015.63 1015.62 1015.56 1015.45 1015.30 1015.11 1014.89 1014.66 1014.43 1014.24 1014.09 1014.00 1013.97 1013.99 1014.04 1014.11 1014.16 1014.20 1014.19 1014.14
1014.71 1014.78 1014.90 1015.04 1015.18 1015.30 1015.35 1015.34 1015.25 1015.11 1014.95 1014.78 1014.65 1014.56 1014.52 1014.55 1014.62 1014.74 1014.87 1015.02 1015.17 1015.30 1015.41 1015.50 1015.54 1015.54 1015.48 1015.36 1015.19 1014.97 1014.73 1014.49 1014.26 1014.08 1013.94 1013.86 1013.84 1013.85 1013.88 1013.91 1013.93 1013.91 1013.85
1014.44 1014.53 1014.66 1014.82 1014.97 1015.09 1015.16 1015.15 1015.08 1014.96 1014.81 1014.65 1014.51 1014.41 1014.36 1014.36 1014.41 1014.51 1014.63 1014.78 1014.94 1015.11 1015.26 1015.40 1015.50 1015.55 1015.55 1015.47 1015.33 1015.14 1014.90 1014.64 1014.39 1014.16 1013.98 1013.84 1013.76 1013.72 1013.70 1013.69 1013.67 1013.62 1013.55
1014.17 1014.28 1014.43 1014.60 1014.75 1014.87 1014.94 1014.94 1014.88 1014.77 1014.64 1014.50 1014.37 1014.28 1014.23 1014.22 1014.26 1014.35 1014.47 1014.62 1014.79 1014.97 1015.16 1015.34 1015.49 1015.59 1015.64 1015.61 1015.51 1015.34 1015.12 1014.86 1014.58 1014.32 1014.09 1013.89 1013.75 1013.64 1013.56 1013.49 1013.43 1013.35 1013.25
1013.89 1014.03 1014.20 1014.37 1014.52 1014.63 1014.69 1014.69 1014.63 1014.53 1014.41 1014.29 1014.19 1014.12 1014.09 1014.10 1014.15 1014.24 1014.36 1014.52 1014.70 1014.89 1015.10 1015.31 1015.50 1015.65 1015.74 1015.76 1015.70 1015.56 1015.36 1015.10 1014.82 1014.52 1014.25 1014.00 1013.79 1013.61 1013.47 1013.34 1013.23 1013.11 1012.99
1013.59 1013.76 1013.95 1014.12 1014.26 1014.36 1014.40 1014.38 1014.32 1014.23 1014.13 1014.03 1013.97 1013.93 1013.94 1013.98 1014.06 1014.17 1014.31 1014.47 1014.66 1014.87 1015.09 1015.31 1015.52 1015.70 1015.83 1015.89 1015.87 1015.77 1015.59 1015.35 1015.06 1014.75 1014.45 1014.15 1013.89 1013.65 1013.44 1013.26 1013.10 1012.94 1012.79
1013.26 1013.47 1013.67 1013.84 1013.96 1014.04 1014.06 1014.02 1013.95 1013.87 1013.79 1013.73 1013.71 1013.73 1013.78 1013.88 1013.99 1014.14 1014.30 1014.48 1014.68 1014.89 1015.12 1015.35 1015.57 1015.76 1015.91 1016.00 1016.02 1015.95 1015.80 1015.58 1015.31 1015.00 1014.68 1014.35 1014.05 1013.76 1013.51 1013.27 1013.06 1012.86 1012.68
1012.91 1013.14 1013.35 1013.52 1013.63 1013.69 1013.68 1013.63 1013.56 1013.49 1013.44 1013.43 1013.46 1013.53 1013.65 1013.80 1013.98 1014.16 1014.36 1014.55 1014.76 1014.97 1015.19 1015.42 1015.64 1015.84 1016.00 1016.11 1016.15 1016.11 1015.99 1015.80 1015.55 1015.25 1014.93 1014.60 1014.26 1013.95 1013.66 1013.38 1013.14 1012.90 1012.68
1012.55 1012.80 1013.02 1013.19 1013.29 1013.32 1013.31 1013.26 1013.19 1013.14 1013.13 1013.16 1013.26 1013.40 1013.59 1013.80 1014.03 1014.26 1014.48 1014.70 1014.91 1015.12 1015.33 1015.54 1015.75 1015.94 1016.10 1016.22 1016.28 1016.26 1016.18 1016.01 1015.79 1015.51 1015.20 1014.87 1014.53 1014.20 1013.89 1013.59 1013.31 1013.04 1012.79
1012.23 1012.50 1012.72 1012.88 1012.97 1013.00 1012.98 1012.94 1012.89 1012.87 1012.90 1012.99 1013.15 1013.36 1013.61 1013.88 1014.16 1014.43 1014.68 1014.91 1015.13 1015.33 1015.52 1015.72 1015.91 1016.08 1016.24 1016.35 1016.42 1016.42 1016.35 1016.22 1016.02 1015.76 1015.47 1015.15 1014.82 1014.49 1014.17 1013.85 1013.55 1013.26 1012.98
Thickness
5753 5752 5752 5751 5750 5750 5749 5749 5748 5748 5748 5748 5748 5748 5748 5747 5746 5745 5745 5744 5742 5741 5740 5739 5737 5735 5733 5732 5730 5729 5728 5727 5725 5724 5723 5721 5720 5719 5717 5716 5715 5713 5712
5755 5753 5752 5752 5751 5750 5750 5749 5749 5748 5748 5748 5749 5749 5749 5748 5747 5746 5745 5744 5743 5742 5741 5740 5738 5736 5734 5732 5731 5729 5728 5727 5726 5724 5723 5722 5720 5719 5717 5716 5714 5713 5712
5757 5755 5753 5752 5752 5751 5750 5749 5749 5748 5748 5748 5748 5749 5749 5749 5748 5747 5746 5745 5744 5743 5742 5741 5739 5737 5735 5734 5732 5730 5729 5728 5726 5725 5723 5722 5720 5719 5717 5715 5714 5713 5711
5757 5756 5755 5754 5753 5752 5751 5750 5749 5747 5747 5747 5747 5748 5749 5748 5748 5747 5746 5746 5745 5744 5743 5742 5740 5738 5737 5735 5733 5732 5730 5729 5727 5725 5724 5722 5720 5719 5717 5715 5714 5712 5710
5757 5756 5755 5754 5754 5752 5751 5750 5749 5747 5746 5746 5746 5747 5748 5748 5749 5748 5747 5746 5746 5745 5744 5743 5741 5740 5738 5736 5735 5733 5732 5730 5729 5726 5724 5722 5721 5719 5717 5715 5714 5712 5710
5758 5757 5755 5754 5753 5752 5751 5750 5748 5747 5746 5746 5746 5747 5747 5748 5748 5748 5748 5747 5747 5746 5745 5743 5742 5741 5739 5738 5736 5735 5733 5731 5730 5728 5726 5724 5722 5720 5718 5716 5714 5712 5710
5759 5757 5756 5754 5753 5752 5751 5750 5748 5746 5745 5745 5742 5740 5743 5747 5747 5748 5748 5748 5747 5747 5745 5744 5743 5742 5741 5739 5738 5736 5734 5733 5731 5729 5727 5725 5723 5721 5719 5716 5714 5712 5710
5759 5758 5756 5754 5753 5752 5750 5749 5747 5744 5744 5744 5739 5734 5731 5735 5742 5748 5748 5747 5748 5747 5746 5745 5744 5742 5742 5740 5739 5737 5735 5734 5732 5730 5728 5726 5723 5721 5719 5717 5715 5712 5710
5761 5759 5757 5755 5753 5752 5750 5749 5748 5744 5741 5742 5742 5736 5728 5726 5733 5741 5745 5747 5747 5746 5746 5745 5744 5743 5742 5740 5739 5738 5737 5735 5733 5731 5728 5726 5724 5722 5720 5717 5715 5713 5710
5761 5760 5758 5757 5754 5752 5751 5750 5749 5747 5743 5740 5740 5741 5739 5736 5730 5730 5738 5743 5745 5745 5745 5745 5745 5744 5743 5741 5739 5738 5737 5736 5733 5731 5729 5727 5724 5722 5719 5717 5715 5712 5710
5762 5761 5759 5757 5755 5753 5752 5750 5749 5747 5746 5742 5740 5739 5738 5736 5735 5729 5728 5734 5739 5743 5744 5744 5744 5743 5742 5741 5739 5738 5737 5735 5733 5731 5729 5727 5724 5722 5719 5717 5714 5712 5710
5762 5761 5760 5758 5756 5754 5752 5750 5749 5747 5746 5744 5742 5740 5737 5734 5733 5731 5728 5730 5732 5737 5741 5743 5742 5742 5741 5740 5739 5738 5736 5735 5733 5730 5728 5726 5724 5721 5719 5716 5714 5711 5709
5761 5761 5760 5758 5756 5754 5752 5751 5749 5747 5746 5744 5743 5741 5740 5739 5738 5735 5731 5729 5729 5733 5736 5739 5740 5741 5740 5739 5738 5737 5735 5734 5732 5729 5726 5725 5723 5720 5718 5715 5712 5710 5708
5762 5762 5760 5759 5757 5755 5753 5751 5748 5747 5746 5744 5744 5742 5740 5740 5739 5736 5732 5729 5725 5726 5729 5732 5736 5737 5737 5736 5735 5734 5732 5731 5729 5726 5724 5722 5720 5718 5716 5713 5711 5708 5705
5764 5763 5761 5759 5757 5755 5753 5751 5748 5747 5745 5744 5743 5741 5740 5739 5739 5738 5735 5732 5725 5720 5721 5726 5729 5732 5732 5732 5731 5730 5729 5727 5725 5723 5721 5719 5717 5715 5713 5711 5708 5705 5702
5765 5763 5761 5759 5757 5755 5753 5750 5748 5747 5744 5743 5741 5739 5738 5737 5737 5736 5733 5731 5729 5724 5720 5724 5725 5728 5728 5728 5726 5725 5724 5722 5721 5719 5717 5715 5713 5710 5709 5706 5703 5701 5698
5766 5763 5760 5757 5755 5752 5751 5748 5747 5745 5743 5741 5739 5738 5736 5735 5733 5732 5730 5728 5726 5723 5719 5721 5723 5723 5723 5722 5721 5720 5719 5718 5716 5714 5712 5710 5708 5706 5704 5702 5699 5696 5693
5765 5762 5758 5755 5752 5750 5748 5746 5743 5742 5740 5738 5736 5735 5732 5732 5730 5729 5726 5724 5722 5721 5718 5716 5716 5716 5717 5717 5716 5714 5713 5712 5710 5708 5706 5705 5703 5701 5698 5695 5693 5690 5687
5763 5760 5757 5753 5750 5747 5745 5743 5741 5739 5737 5735 5733 5730 5729 5727 5725 5724 5723 5720 5719 5718 5716 5713 5712 5711 5711 5711 5709 5708 5707 5705 5704 5702 5700 5698 5696 5694 5691 5689 5686 5683 5680
5762 5758 5754 5751 5748 5745 5742 5739 5737 5735 5733 5731 5729 5727 5725 5723 5721 5720 5719 5716 5715 5712 5710 5708 5706 5706 5705 5705 5703 5700 5698 5697 5696 5695 5692 5690 5688 5686 5684 5682 5679 5676 5674
5759 5755 5751 5747 5744 5741 5738 5735 5733 5731 5728 5726 5724 5723 5721 5719 5718 5716 5715 5712 5710 5707 5704 5702 5700 5699 5698 5697 5695 5694 5690 5688 5688 5687 5684 5682 5680 5678 5676 5674 5672 5669 5667
5755 5751 5746 5742 5739 5737 5734 5731 5728 5725 5723 5721 5719 5717 5715 5713 5712 5711 5710 5708 5706 5702 5699 5696 5694 5692 5692 5691 5690 5687 5683 5680 5678 5679 5676 5674 5672 5670 5669 5667 5665 5662 5659
5752 5746 5742 5738 5734 5731 5729 5726 5723 5720 5717 5714 5712 5710 5709 5707 5706 5704 5703 5702 5700 5698 5696 5692 5689 5688 5687 5687 5684 5680 5677 5674 5673 5672 5669 5666 5664 5662 5661 5659 5657 5655 5652
5747 5742 5737 5734 5729 5725 5723 5721 5717 5714 5711 5708 5706 5704 5701 5700 5699 5697 5696 5693 5691 5690 5689 5687 5686 5685 5683 5681 5678 5675 5671 5668 5665 5663 5661 5657 5655 5653 5652 5651 5649 5646 5644
5742 5737 5733 5728 5723 5719 5717 5714 5711 5707 5704 5701 5700 5697 5695 5693 5692 5690 5687 5685 5683 5682 5682 5680 5679 5678 5676 5674 5671 5666 5662 5659 5656 5654 5652 5648 5646 5644 5642 5641 5639 5637 5635
5736 5732 5726 5721 5717 5713 5710 5707 5704 5701 5696 5694 5691 5689 5687 5685 5683 5682 5679 5677 5674 5673 5672 5671 5670 5668 5666 5664 5661 5658 5655 5651 5647 5644 5643 5640 5637 5634 5632 5631 5630 5628 5625